FW1937 Weather Reports


Display with metric or nautical units.
time (UTC)temp
F
wind
direction
speed
MPH
gust
MPH
rain 1hr
in
rain 24hr
in
rain mn
in
humidity
%
barometer
mb
20260502170423 65 147 0.0 2.0 0.02 0.02 0.02 72 1007.5
20260502170135 65 147 1.0 2.0 0.02 0.02 0.02 72 1007.6
20260502163909 65 147 1.0 7.0 0.02 0.02 0.02 72 1007.9
20260502163411 66 147 3.0 7.0 0.02 0.02 0.02 72 1008.1
20260502162909 66 155 4.0 8.0 0.02 0.02 0.02 72 1008.0
20260502162411 66 168 5.0 10.0 0.02 0.02 0.02 72 1008.0
20260502161908 67 127 5.0 10.0 0.02 0.02 0.02 72 1008.0
20260502161411 67 124 6.0 11.0 0.02 0.02 0.02 72 1008.0
20260502160908 67 121 4.0 11.0 0.02 0.02 0.02 71 1008.1
20260502160412 68 146 4.0 6.0 0.01 0.01 0.01 71 1008.3
20260502152139 68 148 1.0 7.0 0.00 0.00 0.00 71 1008.4
20260502151632 68 126 0.0 3.0 0.00 0.00 0.00 71 1008.4
20260502150901 68 111 0.0 1.0 0.00 0.00 0.00 71 1008.4
20260502150404 68 111 0.0 1.0 0.00 0.00 0.00 70 1008.5
20260502130342 64 107 6.0 13.0 0.00 0.00 0.00 71 1009.7
20260502123609 64 64 4.0 10.0 0.00 0.00 0.00 72 1009.6
20260502122842 64 85 3.0 10.0 0.00 0.00 0.00 72 1009.9
20260502122342 64 110 2.0 9.0 0.00 0.00 0.00 72 1009.9
20260502121839 64 31 2.0 9.0 0.00 0.00 0.00 72 1010.0
20260502121338 64 61 2.0 5.0 0.00 0.00 0.00 72 1010.2
20260502120835 65 47 3.0 9.0 0.00 0.00 0.00 72 1010.4
20260502120554 65 5 3.0 9.0 0.00 0.00 0.00 72 1010.4
20260502115828 65 25 3.0 8.0 0.00 0.00 0.00 72 1010.4
20260502114828 65 5 3.0 9.0 0.00 0.00 0.00 72 1010.4
20260502114327 65 27 3.0 9.0 0.00 0.00 0.00 72 1010.4
20260502113827 65 16 2.0 6.0 0.00 0.00 0.00 72 1010.7
20260502113327 65 20 2.0 5.0 0.00 0.00 0.00 72 1010.6
20260502112828 65 330 3.0 5.0 0.00 0.00 0.00 72 1010.6
20260502112322 65 161 4.0 7.0 0.00 0.00 0.00 72 1010.5
20260502111818 65 130 2.0 12.0 0.00 0.00 0.00 73 1010.4
20260502111319 65 49 4.0 12.0 0.00 0.00 0.00 73 1010.5
20260502110819 65 34 7.0 17.0 0.00 0.00 0.00 75 1010.4
20260502110318 65 300 7.0 17.0 0.00 0.00 0.00 75 1010.3
20260502105817 66 308 8.0 16.0 0.00 0.00 0.00 76 1010.6
20260502105317 67 309 10.0 16.0 0.00 0.00 0.00 79 1010.4
20260502104318 71 275 6.0 17.0 0.00 0.00 0.00 94 1010.5
20260502103817 71 168 6.0 18.0 0.00 0.00 0.00 95 1010.8
20260502103540 71 273 7.0 18.0 0.00 0.00 0.00 95 1010.6
20260502102817 71 234 10.0 22.0 0.00 0.00 0.00 95 1010.5
20260502102317 71 281 10.0 22.0 0.00 0.00 0.00 95 1010.7
20260502102045 71 178 10.0 18.0 0.00 0.00 0.00 95 1010.6
20260502101538 70 192 10.0 16.0 0.00 0.00 0.00 95 1010.5
20260502101027 70 175 12.0 23.0 0.00 0.00 0.00 95 1010.2
20260502100526 70 167 11.0 23.0 0.00 0.00 0.00 95 1010.0
20260502091309 69 141 10.0 21.0 0.00 0.00 0.00 95 1009.9
20260502090809 69 155 11.0 21.0 0.00 0.00 0.00 95 1009.9
20260502090309 69 165 12.0 25.0 0.00 0.00 0.00 95 1009.9
20260502071306 68 172 13.0 24.0 0.00 0.01 0.00 95 1009.9
20260502070805 68 188 14.0 27.0 0.00 0.01 0.00 95 1009.8
20260502070304 68 128 14.0 27.0 0.00 0.01 0.00 95 1010.0
20260502065804 68 180 14.0 24.0 0.00 0.01 0.00 95 1009.9
20260502065306 68 153 15.0 29.0 0.00 0.01 0.00 95 1010.1
20260502064804 69 171 14.0 29.0 0.00 0.01 0.00 95 1010.1
20260502064304 69 126 14.0 28.0 0.00 0.01 0.00 95 1010.0
20260502063805 69 122 15.0 24.0 0.00 0.01 0.00 95 1009.7
20260502063304 69 177 16.0 29.0 0.00 0.01 0.00 95 1009.9
20260502062805 69 158 16.0 29.0 0.00 0.01 0.00 95 1009.6
20260502062306 69 193 18.0 34.0 0.00 0.01 0.00 95 1009.6
20260502061804 69 128 18.0 34.0 0.00 0.01 0.00 95 1009.7
20260502061526 69 132 17.0 21.0 0.00 0.01 0.00 95 1009.7
20260502060805 69 152 17.0 37.0 0.00 0.01 0.00 95 1009.4
20260502060304 69 131 15.0 37.0 0.00 0.01 0.00 95 1009.6
20260502055804 69 188 12.0 25.0 0.00 0.01 0.00 95 1009.6
20260502055306 68 121 11.0 25.0 0.00 0.01 0.00 95 1009.7
20260502054804 68 142 11.0 24.0 0.00 0.01 0.00 95 1009.8
20260502054525 68 159 11.0 24.0 0.00 0.01 0.00 95 1009.9
20260502053804 69 130 12.0 24.0 0.00 0.01 0.00 95 1009.8
20260502053304 69 110 15.0 30.0 0.00 0.01 0.00 95 1009.8
20260502052807 69 189 15.0 30.0 0.00 0.01 0.00 95 1009.5
20260502052306 69 107 11.0 27.0 0.00 0.01 0.00 95 1009.5
20260502051805 69 110 12.0 26.0 0.00 0.01 0.00 95 1009.6
20260502051304 69 186 13.0 33.0 0.00 0.01 0.00 95 1009.6
20260502051023 69 101 12.0 33.0 0.00 0.01 0.00 95 1009.4
20260502050304 69 99 12.0 24.0 0.00 0.01 0.00 95 1009.4
20260502050021 69 148 11.0 23.0 0.00 0.01 0.00 95 1009.4
20260502045534 69 153 11.0 24.0 0.00 0.01 0.00 95 1009.4
20260502044804 69 126 13.0 24.0 0.00 0.01 0.00 95 1009.5
20260502044304 69 150 13.0 25.0 0.00 0.01 0.00 95 1009.4
20260502043805 69 147 14.0 25.0 0.00 0.01 0.00 95 1009.5
20260502043304 69 194 12.0 26.0 0.00 0.01 0.00 95 1009.5
20260502043025 69 158 13.0 26.0 0.00 0.01 0.00 95 1009.5
20260502042306 69 146 15.0 29.0 0.00 0.01 0.00 95 1009.4
20260502041805 69 190 13.0 29.0 0.00 0.01 0.00 95 1009.5
20260502041305 69 163 12.0 22.0 0.00 0.01 0.00 95 1009.3
20260502040805 69 132 12.0 22.0 0.00 0.01 0.00 95 1009.4
20260502040305 69 136 11.0 20.0 0.00 0.01 0.00 95 1009.5
20260502035805 69 107 12.0 28.0 0.00 0.01 0.00 95 1009.4
20260502035534 69 124 13.0 28.0 0.00 0.01 0.00 95 1009.5
20260502034805 69 132 13.0 31.0 0.00 0.01 0.00 95 1009.3
20260502034304 69 111 12.0 31.0 0.00 0.01 0.00 95 1009.4
20260502034022 69 204 12.0 23.0 0.00 0.01 0.00 95 1009.4
20260502033522 69 114 13.0 23.0 0.00 0.01 0.00 95 1009.4
20260502033030 69 157 12.0 25.0 0.00 0.01 0.00 95 1015.6
20260502032306 69 136 10.0 25.0 0.00 0.01 0.00 95 1009.5
20260502031805 69 154 13.0 30.0 0.00 0.01 0.00 95 1009.6
20260502031304 69 144 16.0 30.0 0.00 0.01 0.00 95 1009.5
20260502030804 69 146 15.0 29.0 0.00 0.01 0.00 95 1009.6
20260502030305 69 142 15.0 28.0 0.00 0.01 0.00 95 1009.6
20260502025804 70 118 15.0 28.0 0.00 0.01 0.00 95 1009.7
20260502025306 70 127 14.0 28.0 0.00 0.01 0.00 95 1009.6
20260502024804 70 55 16.0 31.0 0.00 0.01 0.00 95 1009.6
20260502024305 70 148 15.0 31.0 0.00 0.01 0.00 95 1009.7
20260502023804 70 205 15.0 27.0 0.00 0.01 0.00 95 1009.7
20260502023305 70 148 14.0 27.0 0.00 0.01 0.00 95 1009.5
20260502022805 70 108 14.0 29.0 0.00 0.01 0.00 95 1009.5
20260502022306 70 160 13.0 29.0 0.00 0.01 0.00 95 1009.6
20260502021804 70 174 12.0 24.0 0.00 0.01 0.00 94 1009.5
20260502021304 70 153 12.0 21.0 0.00 0.01 0.00 94 1009.7
20260502021028 70 104 13.0 24.0 0.00 0.01 0.00 94 1009.6
20260502020305 70 182 14.0 24.0 0.00 0.01 0.00 94 1009.7
20260502015804 70 163 14.0 28.0 0.00 0.01 0.00 94 1009.6
20260502015305 70 162 12.0 28.0 0.00 0.01 0.00 94 1009.5
20260502014805 70 122 11.0 23.0 0.00 0.01 0.00 94 1009.5
20260502014533 70 185 12.0 23.0 0.00 0.01 0.00 94 1009.6
20260502013805 70 131 12.0 21.0 0.00 0.01 0.00 94 1009.6
20260502013305 70 139 11.0 21.0 0.00 0.01 0.00 94 1009.6
20260502012804 70 153 11.0 18.0 0.00 0.01 0.00 94 1009.6
20260502012525 70 166 10.0 19.0 0.00 0.01 0.00 94 1009.6
20260502011804 70 142 10.0 19.0 0.00 0.01 0.00 94 1009.7
20260502011305 70 158 11.0 18.0 0.00 0.01 0.00 94 1009.7
20260502010805 70 123 12.0 26.0 0.00 0.01 0.00 95 1009.9
20260502010304 70 134 10.0 26.0 0.00 0.01 0.00 95 1009.9
20260502005804 70 171 10.0 19.0 0.00 0.01 0.00 95 1009.9
20260502005306 70 147 11.0 19.0 0.00 0.01 0.00 95 1010.0
20260502004804 70 94 10.0 21.0 0.00 0.01 0.00 94 1010.0
20260502004304 71 121 10.0 21.0 0.00 0.01 0.00 94 1010.1
20260502004025 71 162 11.0 26.0 0.00 0.01 0.00 94 1010.2
20260502003531 71 93 11.0 26.0 0.00 0.01 0.00 94 1010.2
20260502002804 71 125 12.0 25.0 0.00 0.01 0.00 94 1010.4
20260502002305 71 112 11.0 25.0 0.00 0.01 0.00 94 1010.3
20260502002028 71 192 11.0 21.0 0.00 0.01 0.00 94 1010.3
20260502001304 71 154 11.0 19.0 0.00 0.01 0.00 94 1010.5
20260502000804 71 155 11.0 21.0 0.00 0.01 0.00 94 1010.5
20260502000304 71 162 10.0 21.0 0.00 0.01 0.00 94 1010.5
20260501235305 71 98 12.0 23.0 0.00 0.01 0.00 94 1010.7
20260501234804 71 142 13.0 18.0 0.00 0.01 0.00 94 1010.7
20260501234304 71 171 14.0 26.0 0.00 0.01 0.00 94 1010.7
20260501233804 71 136 13.0 26.0 0.00 0.01 0.00 94 1010.7
20260501233304 71 160 12.0 24.0 0.00 0.01 0.00 94 1010.6
20260501233022 71 181 13.0 24.0 0.00 0.01 0.00 94 1010.7
20260501232529 71 160 12.0 25.0 0.00 0.01 0.00 94 1010.7
20260501231804 71 103 12.0 25.0 0.00 0.01 0.00 94 1010.7
20260501231304 71 197 11.0 21.0 0.00 0.01 0.00 94 1010.7
20260501230804 71 165 10.0 21.0 0.00 0.01 0.00 94 1010.8
20260501230528 71 174 11.0 19.0 0.00 0.01 0.00 94 1010.7
20260501225805 72 126 10.0 18.0 0.00 0.01 0.00 94 1010.7
20260501225530 72 182 10.0 19.0 0.00 0.01 0.00 94 1010.7
20260501224305 72 130 11.0 25.0 0.00 0.01 0.00 94 1010.8
20260501224028 72 130 13.0 25.0 0.00 0.01 0.00 94 1010.8
20260501223304 72 162 12.0 24.0 0.00 0.01 0.00 94 1010.9
20260501223026 72 198 10.0 17.0 0.00 0.01 0.00 94 1010.9
20260501222305 72 113 9.0 17.0 0.00 0.01 0.00 94 1010.9
20260501221804 72 138 8.0 24.0 0.00 0.01 0.00 94 1010.9
20260501221305 72 185 9.0 24.0 0.00 0.01 0.00 94 1011.0
20260501220804 72 123 11.0 24.0 0.00 0.01 0.00 94 1011.0
20260501220304 73 120 11.0 24.0 0.00 0.01 0.00 94 1011.0
20260501215804 73 176 13.0 29.0 0.00 0.01 0.01 94 1011.0
20260501215305 73 139 12.0 29.0 0.00 0.01 0.01 94 1011.1
20260501214804 73 182 10.0 20.0 0.00 0.01 0.01 94 1011.2
20260501214305 73 146 11.0 24.0 0.00 0.01 0.01 94 1011.1
20260501213804 73 137 12.0 24.0 0.00 0.01 0.01 94 1011.1
20260501213304 73 148 10.0 21.0 0.00 0.01 0.01 94 1011.1
20260501212804 73 114 11.0 22.0 0.00 0.01 0.01 94 1011.1
20260501212306 73 171 11.0 22.0 0.00 0.01 0.01 94 1011.0
20260501211803 73 203 8.0 16.0 0.00 0.01 0.01 94 1010.9
20260501211524 73 136 8.0 16.0 0.00 0.01 0.01 94 1010.9
20260501210803 73 127 7.0 17.0 0.00 0.01 0.01 94 1011.1
20260501210259 73 117 7.0 17.0 0.00 0.01 0.01 94 1011.0
20260501205800 73 151 8.0 18.0 0.00 0.01 0.01 94 1011.0
20260501205249 73 109 8.0 18.0 0.00 0.01 0.01 94 1011.1
20260501204746 73 178 8.0 16.0 0.00 0.01 0.01 94 1011.0
20260501204247 73 150 9.0 16.0 0.00 0.01 0.01 94 1010.9
20260501203747 73 188 9.0 16.0 0.00 0.01 0.01 94 1011.0
20260501203247 73 149 10.0 18.0 0.00 0.01 0.01 94 1011.0
20260501202747 73 199 10.0 18.0 0.00 0.01 0.01 94 1011.0
20260501202246 73 126 11.0 18.0 0.00 0.01 0.01 94 1010.9
20260501201747 73 128 10.0 19.0 0.00 0.01 0.01 94 1011.0
20260501201246 73 163 9.0 19.0 0.00 0.01 0.01 94 1010.9
20260501200747 73 145 8.0 16.0 0.00 0.01 0.01 94 1011.0
20260501200247 73 168 8.0 14.0 0.00 0.01 0.01 94 1010.9
20260501195747 73 182 7.0 14.0 0.00 0.01 0.01 94 1010.9
20260501195242 73 171 7.0 12.0 0.00 0.01 0.01 94 1010.9
20260501194745 73 170 7.0 11.0 0.00 0.01 0.01 93 1010.9
20260501194505 73 159 8.0 13.0 0.00 0.01 0.01 93 1010.9
20260501193746 73 136 7.0 13.0 0.00 0.01 0.01 94 1010.9
20260501193242 73 138 6.0 12.0 0.00 0.01 0.01 94 1010.9
20260501192746 74 171 6.0 11.0 0.00 0.01 0.01 94 1017.2
20260501192501 74 195 6.0 9.0 0.00 0.01 0.01 94 1010.9
20260501191746 74 155 6.0 11.0 0.00 0.01 0.01 93 1010.8
20260501191242 74 176 6.0 11.0 0.00 0.01 0.01 93 1010.8
20260501190745 75 192 5.0 9.0 0.00 0.01 0.01 93 1010.8
20260501185740 75 167 5.0 11.0 0.00 0.01 0.01 93 1010.7
20260501185240 75 209 6.0 11.0 0.00 0.01 0.01 92 1010.8
20260501185001 75 156 7.0 14.0 0.00 0.01 0.01 91 1010.7
20260501184500 75 162 7.0 14.0 0.00 0.01 0.01 88 1010.7
20260501183741 75 150 6.0 12.0 0.00 0.01 0.01 76 1010.6
20260501183253 75 163 5.0 11.0 0.00 0.01 0.01 72 1010.6
20260501182741 75 163 3.0 10.0 0.00 0.01 0.01 73 1010.5
20260501182240 75 202 1.0 7.0 0.00 0.01 0.01 72 1010.4
20260501181741 75 59 1.0 4.0 0.00 0.01 0.01 72 1010.4
20260501181240 75 26 2.0 4.0 0.00 0.01 0.01 71 1010.5
20260501180730 75 65 2.0 4.0 0.00 0.01 0.01 71 1010.4
20260501180230 75 51 1.0 4.0 0.00 0.01 0.01 71 1010.4
20260501175230 74 9 0.0 3.0 0.00 0.01 0.01 71 1010.5
20260501174730 74 9 0.0 3.0 0.00 0.01 0.01 71 1010.5
20260501174231 74 5 1.0 3.0 0.00 0.01 0.01 71 1010.5
20260501173730 74 5 1.0 3.0 0.00 0.01 0.01 71 1010.5
20260501173230 74 5 1.0 4.0 0.00 0.01 0.01 71 1010.5
20260501172730 74 5 1.0 4.0 0.00 0.01 0.01 71 1010.5
20260501172230 74 5 2.0 4.0 0.00 0.01 0.01 71 1010.5